Location: *
(33.3200°N, 8.3381°W)
Time: 19:42:10
(UTC+00:00)

ARGOS - Pass Details

Date: 09 April 2020
Orbit: 820 x 834 km, 98.5° (Epoch: 27 May)

Event Time Altitude Azimuth Distance (km) Brightness Sun altitude
Exits shadow 21:02:35 10° 196° (SSW) 2,400 5.4 -24.9°
Maximum altitude 21:07:25 36° 262° (W) 1,284 4.5 -25.8°
Drops below altitude 10° 21:12:21 10° 328° (NNW) 2,430 6.4 -26.7°
Sets 21:14:53 0° 337° (NNW) 3,365 7.1 -27.1°
